Location: Montreal
(45.5000°N, 73.5833°W)
Time: 10:57:40
(UTC-04:00)

Envisat - Visible Passes

Search period start: 25 March 2019 00:00
Search period end: 04 April 2019 00:00
Orbit: 764 x 766 km, 98.2° (Epoch: 24 March)

Date Brightness Start Highest point End Pass type
(mag) Time Alt. Az. Time Alt. Az. Time Alt. Az.
25 Mar 6.3 21:12:51 10° W 21:13:50 10° W 21:14:49 10° WNW visible
26 Mar 5.5 20:32:37 10° SW 20:36:37 23° W 20:40:39 10° NW visible
27 Mar 4.1 19:54:43 10° S 19:59:37 49° W 20:04:33 10° NNW visible
28 Mar 6.0 20:59:58 10° WSW 21:02:27 14° W 21:04:57 10° WNW visible
29 Mar 5.1 20:20:56 10° SSW 20:25:18 29° W 20:29:42 10° NW visible
30 Mar 3.7 19:43:21 10° S 19:48:22 61° W 19:53:25 10° NNW visible
31 Mar 5.8 20:47:49 10° SW 20:51:06 17° W 20:54:23 10° NW visible
01 Apr 4.7 20:09:22 10° SSW 20:14:00 36° W 20:18:41 10° NNW visible
03 Apr 5.6 20:35:55 10° SW 20:39:45 21° W 20:43:36 10° NW visible
